DMC 3-FM2

Satellite information

Favourite Embed

Satellite Type and Status

PAYLOADIN ORBIT

Key statistics

Satellite DMC 3-FM2 at a glance.

Uptime

3763

Days in orbit

Revolutions

≈ 14.9

Per day

Orbit

SSO

Sun Synchronous Orbit

Inclination

97.7

Latest

Satellite identification and parameters

Extended collection of information and parameters for DMC 3-FM2.

Object identification

Identified? True

Debris? False

Object name: DMC 3-FM2

International designator: 2015-032B

Object number (NORAD): 40716

Object ID (CCSDS): 40716

Country: UNITED KINGDOM (UK)

Current information (Y/N): Y

RCS size: LARGE

Orbital parameters

Period: 96.95 minutes

Inclination: 97.6802 deg

SMA: 6990.775 km

Apoapsis: 617.99 km

Periapsis: 607.291 km

RAAN: 171.1816 deg

Eccentricy: 0.00076528

Argument of periapsis: 100.8649 deg

Mean anomaly: 259.3428 deg

Mean motion: 14.85301906 rev/day

Mean motion (dot): 0.00001074 rev/day2

B* drag term: 0.0001309911 1/REarth

Two-line elements (TLE)

Creation date: Oct. 28, 2025, 2:18 a.m.

Reference frame: TEME

Reference center: EARTH

Epoch: Oct. 27, 2025, 10 p.m. UTC

TLE line 0: 0 DMC 3-FM2

TLE line 1: 1 40716U 15032B 25300.91713487 .00001074 00000-0 13099-3 0 9996

TLE line 2: 2 40716 97.6802 171.1816 0007653 100.8649 259.3428 14.85301906555427

Live tracking on map

Real-time ground track for satellite DMC 3-FM2.

In-orbit conjunctions

There are no conjunctions computed for DMC 3-FM2, at the moment. Check back to stay up to date, as we update our databases every day.

Go to all conjunctions

Associated space launch

The Polar Satellite Launch Vehicle (PSLV), in its thirtieth flight (PSLV-C28), will launch three identical DMC3 optical earth observation satellites. A, B and C. It will also carry two auxiliary satellites from UK. CBNT-1, a technology demonstrator earth observation micro satellite, and De-OrbitSail, a technology demonstrator nano satellite.

DMC 3-FM2 was lifted into orbit during the mission ‘PSLV XL | DMC-3A, DMC-3B, DMC-3C, CBNT-1 & DeOrbitSAIL’, on board a PSLV-XL space rocket.

The launch took place on July 10, 2015, 4:28 p.m. from Satish Dhawan Space Centre First Launch Pad.

For more information about the launch, click the button.

Launch to space PSLV XL | DMC-3A, DMC-3B, DMC-3C, CBNT-1 & DeOrbitSAIL
PSLV XL | DMC-3A, DMC-3B, DMC-3C, CBNT-1 & DeOrbitSAIL

Agency: N/A

Status: Launch Successful

Launch date: July 10, 2015, 4:28 p.m. UTC

Rocket: PSLV-XL

Launch pad: Satish Dhawan Space Centre First Launch Pad

Location: Satish Dhawan Space Centre, India

...

Latest news about this satellite

There are no fresh news available about this satellite. Check back as we update our databases every day.


Newsletter sign-up

Weekly statistics, charts and insights to help you stay on top of the space industry.